星链-35240(STARLINK-35240)

导读

STARLINK-35240是美国于2025年9月19日发射的星链卫星,星链是SpaceX打造的低轨卫星互联网星座项目,该卫星入轨后将服务全球高速互联网接入需求,补全星座组网覆盖,为偏远地区、移动载体等提供网络服务,是星链星座持续扩容部署中的一颗节点卫星。

Basic Information
目录编号:
65655
目录名称:
STARLINK-35240
国际标识:
2025-211D
轨道中心:
EARTH
卫星名称:
星链-35240
卫星全名:
星链-35240(STARLINK-35240)
卫星状态:
在轨 (已飞行350 天)
发射日期:
2025-09-19 UTC
国别 :
美国 (US)
星等 :
--
Orbit Information
数据来源 国际轨道数据 AOE轨道数据
星历时间 2026-09-04T09:34:57+0800
8小时前
查看轨道信息
2026-09-03T23:00:00+0800
18小时前
查看轨道信息
半长轴 6843.674km 6843.675km
偏心率 0.0001361 0.0000994
轨道倾角 97.284° 97.286°
近地点辐角 95.884° 36.223°
升交点赤经 287.517° 287.079°
平近点角 264.255° 51.342°
近地点 464.605km 464.857km
远地点 466.469km 466.219km
周期 93.906分钟 93.906分钟
每日圈数 15.334471 15.33447
Detailed Information
固有亮度:
5
最大亮度:
2.5
卫星平台:
Starlink V1.0
覆盖范围:
全球
运营商:
太空探索技术公司
运营商所在国:
美国
制造商(研发单位):
太空探索技术公司
制造商所在国:
美国
使用方式:
暂无
Satellite Introduction
Starlink 计划是 SpaceX 推出的全球卫星互联网项目,通过发射低轨道卫星,为全球尤其是偏远地区提供高速、低延迟的互联网服务。自 2019 年起,Starlink 已部署数千颗卫星,旨在缩小全球数字鸿沟,推动互联网普及。该项目还为军事、航空等行业提供通信支持,带来广泛经济效益。
2D Orbit Map
3D Orbit Map
Orbit Altitude Analysis Chart
Orbit Inclination Analysis Chart
Orbit Comprehensive Analysis Chart
View Comprehensive Chart
Conjunction Data List
Event ID Objects TCA Miss Dist (km) Collision Risk Probability Collision Risk Index (CRI) Action
CDM_260902-122305-850206-565523
OBJECT A (58502)
2026-09-02T
12:23:36+0000
0.173 km
中距离
5.524148E-4 高风险 0.9
CDM_260905-085206-223406-565521
2026-09-05T
08:52:16+0000
2.479 km
极远距离
1.779086E-6 低风险 0.4
CDM_260905-230404-944706-565521
2026-09-05T
23:04:04+0000
2.537 km
极远距离
1.705435E-6 低风险 0.4
CDM_260903-195204-809306-565521
2026-09-03T
19:52:22+0000
2.938 km
极远距离
1.277528E-6 低风险 0.37
CDM_260904-183404-858306-565521
2026-09-04T
18:34:35+0000
2.933 km
极远距离
1.24144E-6 低风险 0.37
CDM_260905-022706-418306-565521
2026-09-05T
02:27:23+0000
2.859 km
极远距离
9.989804E-7 极低风险 0.35